FW5346 Weather Reports


time (UTC)temp
F
wind
direction
speed
knots
gust
knots
rain 1hr
in
rain 24hr
in
rain mn
in
humidity
%
barometer
mb
20260505051523 42 178 8.7 13.9 0.00 0.36 0.00 85 1006.7
20260505041555 44 190 10.4 18.2 0.00 0.36 0.00 83 1006.2
20260505040045 44 343 9.6 16.5 0.00 0.36 0.00 83 1006.1
20260505034541 44 184 11.3 20.0 0.00 0.36 0.00 82 1005.8
20260505033040 43 343 9.6 16.5 0.00 0.36 0.00 82 1005.7
20260505031546 43 161 11.3 20.0 0.00 0.36 0.00 83 1005.4
20260505030033 43 172 10.4 19.1 0.00 0.36 0.00 83 1005.2
20260505024535 43 343 10.4 18.2 0.01 0.36 0.36 83 1005.0
20260505023034 43 200 9.6 15.6 0.02 0.36 0.36 83 1004.9
20260505021528 43 168 11.3 21.7 0.02 0.36 0.36 81 1004.7
20260505020031 44 182 11.3 17.4 0.02 0.36 0.36 79 1004.5
20260505014529 45 190 11.3 20.0 0.01 0.35 0.35 76 1004.3
20260505013024 46 202 13.0 20.0 0.00 0.35 0.35 75 1004.0
20260505011530 45 343 12.2 17.4 0.00 0.35 0.35 76 1003.7
20260505010020 45 343 11.3 20.0 0.00 0.35 0.35 74 1003.6
20260505004539 45 180 10.4 16.5 0.00 0.38 0.35 72 1003.6
20260505003019 46 189 11.3 16.5 0.00 0.38 0.35 70 1003.7
20260505001520 46 343 13.0 21.7 0.00 0.38 0.35 69 1003.5
20260505000033 45 170 9.6 16.5 0.00 0.38 0.35 71 1003.4
20260504234513 45 343 9.6 14.8 0.00 0.40 0.35 71 1002.8
20260504233013 44 343 8.7 14.8 0.00 0.40 0.35 71 1002.8
20260504231510 44 151 6.1 9.6 0.00 0.40 0.35 71 1002.7
20260504230011 44 172 7.0 11.3 0.00 0.40 0.35 71 1002.8
20260504224510 44 198 8.7 16.5 0.00 0.54 0.35 70 1002.7
20260504223107 45 182 9.6 14.8 0.00 0.54 0.35 69 1002.6
20260504221510 45 185 8.7 13.0 0.00 0.54 0.35 68 1002.5
20260504220008 46 179 7.8 12.2 0.00 0.65 0.35 68 1002.3
20260504214504 47 176 8.7 14.8 0.00 0.65 0.35 67 1002.2
20260504213002 47 185 8.7 17.4 0.00 0.65 0.35 66 1001.9
20260504211614 47 343 12.2 20.0 0.00 0.65 0.35 66 1001.7
20260504210058 47 206 15.6 23.5 0.00 0.65 0.35 67 1001.5
20260504204600 47 191 11.3 20.9 0.00 0.79 0.35 72 1001.3
20260504203101 47 199 12.2 19.1 0.00 0.79 0.35 72 1001.1
20260504201551 47 173 12.2 20.0 0.00 0.79 0.35 73 1000.9
20260504200049 47 214 12.2 20.9 0.00 0.79 0.35 74 1000.8
20260504194548 46 211 7.8 16.5 0.00 0.88 0.35 77 1000.5
20260504193044 45 188 11.3 19.1 0.00 0.88 0.35 78 1000.2
20260504191543 46 219 10.4 19.1 0.00 0.88 0.35 78 1000.3
20260504190041 45 343 11.3 20.0 0.00 0.88 0.35 79 1000.1
20260504184639 45 195 9.6 17.4 0.00 0.88 0.35 82 999.9
20260504183037 45 343 11.3 18.2 0.00 0.88 0.35 81 999.9
20260504181534 43 214 5.2 21.7 0.00 0.88 0.35 83 999.7
20260504180036 43 245 15.6 23.5 0.00 0.88 0.35 85 999.7
20260504174532 42 221 8.7 16.5 0.00 0.88 0.35 86 999.8
20260504173031 41 237 10.4 13.9 0.00 0.88 0.35 87 999.4
20260504171531 41 208 7.8 14.8 0.00 0.88 0.35 87 999.2
20260504081550 38 252 8.7 13.0 0.05 0.68 0.14 93 978.1